THORAD DELTA 1 DEB, 8143

Orbit data source: Space-Track

THORAD DELTA 1 DEB, 8143 is space debris in SSO originally from a launch on Fri, 15 Nov 1974 UTC launched from the Air Force Western Test Range (AFWTR). Debris objects in space refer to the collection of defunct objects orbiting the Earth. Examples of debris include non-operational satellites, rocket bodies, and fragments generated from explosions, collisions, or faulty payload assembly.

Loading next visibility...
Identifier
8143, 1974-089M
Orbit
SSO
Country
Flag of USUS
Related business
Manufacturer
Unknown
Mission
Spacecraft
Bus & Motor
Unknown
Mass
Unknown
Launch date (UTC)
1974-11-15 (51 years ago)
Launch vehicle
Unknown
Launch site
Air Force Western Test Range (AFWTR)
Object type
Payload
Rocket body
Debris
Shape & HBR
Unknown shape, 0.4 m
Radar Cross Section
Small (<0.1 m²)

Expand to show TLE details & history
Last TLE update: 14 hours ago

TLE from 14 hours ago
0 THORAD DELTA 1 DEB
1 08143U 74089M   25287.20954400  .00000046  00000-0  48939-3 0  9998
2 08143 101.7478 270.0094 0194026 327.0705  31.8408 12.61343429341719
Epoch: 2025-10-14T05:01Z
TLE epoch observation values (Epoch: 2025-10-14T05:01:44.601Z)
Latitude
-0.00002°
Longitude
171.57231°
Altitude
1,292.319 km
Speed
7.269 km/s
True Right ascension
18h 00m 02s
True Declination
0° 00' 00"
Sunlit
Object was in daylight at epoch
Visualization orbit readout
Latitude
Unknown
Longitude
Unknown
Altitude
Unknown
Speed
Unknown
Apparent Right ascension
Unknown
Apparent Declination
Unknown
Sunlit
N/A
Visualization observer readout
Local Sidereal Time
13:50:33
Azimuth
Unknown
Elevation
Unknown
Doppler factor
Unknown
Orbital elements
Apogee altitude
1,566.141 km
Perigee altitude
1,263.729 km
Semi-major axis
7,793.072 km
Eccentricity
0.0194
Inclination
101.7478°
RAAN
270.0094°
Arg. of periapsis
327.0705°
True anomaly
33.03833°
Mean anomaly
31.8408°
Eccentric anomaly
32.43708°
Mean motion
3.15486 °/min
Orbital period
114.11 mins
BSTAR
0.00048939
Loading maneuver chart data...
Computing Atmospheric mass density...

Documentation

Showing up to 5 results
|